STARLINK-1260, 45404

Orbit data source: Space-Track

STARLINK-1260, 45404 is a payload satellite owned by SpaceX/Seattle (US) in LEO that was launched on Wed, 18 Mar 2020 UTC via an FALCON 9 launch vehicle from the Air Force Eastern Test Range (AFETR). Payload-class satellites include a variety of spacecraft equipped with specific instruments for various scientific and technological missions. These include communications satellites like Starlink; space stations such as the ISS; scientific satellites like the Hubble; Earth observation satellites from companies like Planet Labs, Umbra, and HawkEye 360; GPS; miniature CubeSats for education and research; and military/defense satellites.

Loading next visibility...
Identifier
45404, 2020-019AW
Orbit
LEO
Country
Flag of USUS
Related business
Manufacturer
SpaceX/Seattle
Mission
Operational Commercial Communications
Bus & Motor
STARLINK, Unknown motor
Mass
260 kg wet, ~248 kg dry
Launch date (UTC)
2020-03-18 (6 years ago)
Launch vehicle
FALCON 9
Launch site
Air Force Eastern Test Range (AFETR)
Object type
Payload
Rocket body
Debris
Shape & HBR
Box + 1 Pan, 10.1 m
Radar Cross Section
13.562 m², Large (>1 m²)

Expand to show TLE details & history
Last TLE update: 9 hours ago

TLE from 9 hours ago
0 STARLINK-1260
1 45404U 20019AW  25311.30689304  .00003049  00000-0  22352-3 0  9997
2 45404  53.0550 326.0140 0001465  93.7533 266.3623 15.06395332311414
Epoch: 2025-11-07T07:21Z
TLE epoch observation values (Epoch: 2025-11-07T07:21:55.558Z)
Latitude
-0.00007°
Longitude
168.77971°
Altitude
548.17 km
Speed
7.589 km/s
True Right ascension
21h 44m 03s
True Declination
0° 00' 00"
Sunlit
Object was in daylight at epoch
Visualization orbit readout
Latitude
Unknown
Longitude
Unknown
Altitude
Unknown
Speed
Unknown
Apparent Right ascension
Unknown
Apparent Declination
Unknown
Sunlit
N/A
Visualization observer readout
Local Sidereal Time
12:09:32
Azimuth
Unknown
Elevation
Unknown
Doppler factor
Unknown
Orbital elements
Apogee altitude
548.511 km
Perigee altitude
546.482 km
Semi-major axis
6,925.634 km
Eccentricity
0.00015
Inclination
53.055°
RAAN
326.014°
Arg. of periapsis
93.7533°
True anomaly
266.34555°
Mean anomaly
266.3623°
Eccentric anomaly
266.35392°
Mean motion
3.76577 °/min
Orbital period
95.6 mins
BSTAR
0.00022352
Loading maneuver chart data...
Computing Atmospheric mass density...
Loading historical data...
Loading historical data...
Loading historical data...
Loading historical data...
Loading historical data...
Loading historical data...
Loading historical data...

Documentation

Showing up to 5 results
|